| time (UTC) | temp C | wind direction | speed KPH | gust KPH | rain 1hr cm | rain 24hr cm | rain mn cm | humidity % | barometer mb |
| 20260508220611 | 18 | 155 | 3.2 | 3.2 | 0.00 | 0.00 | 0.00 | 51 | 1005.9 |
| 20260508220108 | 18 | 157 | 0.0 | 1.6 | 0.00 | 0.00 | 0.00 | 56 | 1005.7 |
| 20260508215605 | 18 | 158 | 0.0 | 0.0 | 0.00 | 0.00 | 0.00 | 55 | 1005.9 |
| 20260508215102 | 18 | 152 | 3.2 | 3.2 | 0.00 | 0.00 | 0.00 | 54 | 1005.7 |
| 20260508214559 | 18 | 155 | 3.2 | 3.2 | 0.00 | 0.00 | 0.00 | 51 | 1005.6 |
| 20260508214055 | 18 | 161 | 0.0 | 0.0 | 0.00 | 0.00 | 0.00 | 54 | 1005.9 |
| 20260508213552 | 19 | 160 | 0.0 | 0.0 | 0.00 | 0.00 | 0.00 | 52 | 1005.7 |
| 20260508213048 | 18 | 161 | 0.0 | 1.6 | 0.00 | 0.00 | 0.00 | 54 | 1005.9 |
| 20260508212545 | 18 | 160 | 1.6 | 1.6 | 0.00 | 0.00 | 0.00 | 52 | 1005.9 |
| 20260508212041 | 18 | 155 | 3.2 | 3.2 | 0.00 | 0.00 | 0.00 | 51 | 1005.9 |
| 20260508211537 | 18 | 161 | 0.0 | 0.0 | 0.00 | 0.00 | 0.00 | 52 | 1005.7 |
| 20260508211033 | 18 | 161 | 0.0 | 0.0 | 0.00 | 0.00 | 0.00 | 51 | 1006.3 |
| 20260508210530 | 18 | 153 | 1.6 | 1.6 | 0.00 | 0.00 | 0.00 | 48 | 1006.3 |
| 20260508210028 | 18 | 174 | 4.8 | 4.8 | 0.00 | 0.00 | 0.00 | 51 | 1006.5 |
| 20260508205524 | 18 | 148 | 3.2 | 4.8 | 0.00 | 0.00 | 0.00 | 51 | 1006.3 |
| 20260508205020 | 18 | 155 | 1.6 | 1.6 | 0.00 | 0.00 | 0.00 | 49 | 1006.5 |
| 20260508204518 | 18 | 151 | 4.8 | 6.4 | 0.00 | 0.00 | 0.00 | 54 | 1006.7 |
| 20260508204014 | 18 | 150 | 6.4 | 6.4 | 0.00 | 0.00 | 0.00 | 51 | 1006.7 |
| 20260508203510 | 19 | 164 | 1.6 | 4.8 | 0.00 | 0.00 | 0.00 | 53 | 1006.8 |
| 20260508203005 | 19 | 158 | 3.2 | 3.2 | 0.00 | 0.00 | 0.00 | 52 | 1006.7 |
| 20260508202503 | 19 | 149 | 3.2 | 3.2 | 0.00 | 0.00 | 0.00 | 49 | 1006.7 |
| 20260508202000 | 19 | 178 | 3.2 | 4.8 | 0.00 | 0.00 | 0.00 | 47 | 1006.8 |
| 20260508201456 | 19 | 155 | 1.6 | 1.6 | 0.00 | 0.00 | 0.00 | 51 | 1007.0 |
| 20260508200953 | 19 | 161 | 0.0 | 0.0 | 0.00 | 0.00 | 0.00 | 50 | 1006.7 |
| 20260508200450 | 18 | 164 | 1.6 | 1.6 | 0.00 | 0.00 | 0.00 | 51 | 1006.7 |
| 20260508195944 | 18 | 159 | 1.6 | 3.2 | 0.00 | 0.00 | 0.00 | 51 | 1006.9 |
| 20260508195442 | 19 | 127 | 8.0 | 9.7 | 0.00 | 0.00 | 0.00 | 47 | 1007.0 |
| 20260508194938 | 19 | 151 | 3.2 | 4.8 | 0.00 | 0.00 | 0.00 | 48 | 1007.2 |
| 20260508194436 | 19 | 160 | 0.0 | 0.0 | 0.00 | 0.00 | 0.00 | 47 | 1006.8 |
| 20260508193933 | 19 | 125 | 9.7 | 12.9 | 0.00 | 0.00 | 0.00 | 46 | 1007.1 |
| 20260508193430 | 20 | 173 | 1.6 | 3.2 | 0.00 | 0.00 | 0.00 | 48 | 1007.1 |
| 20260508192926 | 20 | 162 | 3.2 | 4.8 | 0.00 | 0.00 | 0.00 | 46 | 1007.0 |
| 20260508192423 | 20 | 139 | 11.3 | 14.5 | 0.00 | 0.00 | 0.00 | 49 | 1007.0 |
| 20260508191920 | 21 | 120 | 3.2 | 4.8 | 0.00 | 0.00 | 0.00 | 44 | 1006.9 |
| 20260508191417 | 21 | 106 | 17.7 | 25.7 | 0.00 | 0.00 | 0.00 | 50 | 1007.2 |
| 20260508190913 | 22 | 130 | 4.8 | 9.7 | 0.00 | 0.00 | 0.00 | 48 | 1007.2 |
| 20260508190411 | 20 | 153 | 1.6 | 1.6 | 0.00 | 0.00 | 0.00 | 48 | 1007.3 |
| 20260508185907 | 20 | 172 | 4.8 | 6.4 | 0.00 | 0.00 | 0.00 | 47 | 1007.5 |
| 20260508185405 | 20 | 161 | 3.2 | 3.2 | 0.00 | 0.00 | 0.00 | 49 | 1007.7 |
| 20260508184902 | 20 | 144 | 4.8 | 4.8 | 0.00 | 0.00 | 0.00 | 51 | 1007.9 |
| 20260508184359 | 20 | 144 | 6.4 | 9.7 | 0.00 | 0.00 | 0.00 | 45 | 1007.7 |
| 20260508183855 | 20 | 152 | 6.4 | 6.4 | 0.00 | 0.00 | 0.00 | 49 | 1007.8 |
| 20260508183352 | 20 | 71 | 12.9 | 14.5 | 0.00 | 0.00 | 0.00 | 50 | 1007.9 |
| 20260508182848 | 20 | 159 | 11.3 | 12.9 | 0.00 | 0.00 | 0.00 | 47 | 1008.0 |
| 20260508182345 | 20 | 119 | 14.5 | 16.1 | 0.00 | 0.00 | 0.00 | 51 | 1008.1 |
| 20260508181840 | 20 | 148 | 4.8 | 6.4 | 0.00 | 0.00 | 0.00 | 52 | 1008.1 |
| 20260508181337 | 20 | 142 | 9.7 | 12.9 | 0.00 | 0.00 | 0.00 | 49 | 1008.3 |
| 20260508180834 | 21 | 194 | 3.2 | 4.8 | 0.00 | 0.00 | 0.00 | 46 | 1008.5 |
| 20260508180331 | 20 | 145 | 3.2 | 3.2 | 0.00 | 0.00 | 0.00 | 53 | 1008.4 |
| 20260508175827 | 20 | 145 | 14.5 | 17.7 | 0.00 | 0.00 | 0.00 | 48 | 1008.6 |
| 20260508175324 | 19 | 166 | 1.6 | 3.2 | 0.00 | 0.00 | 0.00 | 51 | 1008.6 |
| 20260508174823 | 19 | 154 | 3.2 | 4.8 | 0.00 | 0.00 | 0.00 | 50 | 1008.6 |
| 20260508174319 | 18 | 149 | 1.6 | 1.6 | 0.00 | 0.00 | 0.00 | 55 | 1008.7 |
| 20260508173815 | 18 | 179 | 1.6 | 1.6 | 0.00 | 0.00 | 0.00 | 52 | 1008.7 |
| 20260508173313 | 18 | 156 | 3.2 | 4.8 | 0.00 | 0.00 | 0.00 | 52 | 1009.1 |
| 20260508172809 | 19 | 151 | 1.6 | 3.2 | 0.00 | 0.00 | 0.00 | 50 | 1009.1 |
| 20260508172307 | 18 | 117 | 6.4 | 11.3 | 0.00 | 0.00 | 0.00 | 50 | 1009.1 |
| 20260508171802 | 18 | 154 | 0.0 | 0.0 | 0.00 | 0.00 | 0.00 | 56 | 1009.3 |
| 20260508171258 | 20 | 152 | 3.2 | 4.8 | 0.00 | 0.00 | 0.00 | 52 | 1009.3 |
| 20260508170755 | 19 | 163 | 1.6 | 1.6 | 0.00 | 0.00 | 0.00 | 52 | 1009.2 |
| 20260508170253 | 20 | 134 | 4.8 | 6.4 | 0.00 | 0.00 | 0.00 | 55 | 1009.3 |
| 20260508165744 | 18 | 140 | 3.2 | 4.8 | 0.00 | 0.00 | 0.00 | 56 | 1009.5 |
| 20260508165241 | 19 | 121 | 12.9 | 16.1 | 0.00 | 0.00 | 0.00 | 54 | 1009.7 |
| 20260508164737 | 20 | 156 | 6.4 | 11.3 | 0.00 | 0.00 | 0.00 | 52 | 1009.9 |
| 20260508164234 | 19 | 121 | 8.0 | 12.9 | 0.00 | 0.00 | 0.00 | 55 | 1009.9 |
| 20260508163732 | 19 | 87 | 6.4 | 9.7 | 0.00 | 0.00 | 0.00 | 51 | 1009.9 |
| 20260508163230 | 19 | 119 | 9.7 | 14.5 | 0.00 | 0.00 | 0.00 | 55 | 1009.8 |
| 20260508162725 | 19 | 141 | 4.8 | 6.4 | 0.00 | 0.00 | 0.00 | 52 | 1009.8 |
| 20260508162222 | 19 | 182 | 11.3 | 17.7 | 0.00 | 0.00 | 0.00 | 51 | 1009.8 |
| 20260508161719 | 19 | 154 | 6.4 | 6.4 | 0.00 | 0.00 | 0.00 | 53 | 1010.0 |
| 20260508161217 | 18 | 162 | 3.2 | 4.8 | 0.00 | 0.00 | 0.00 | 51 | 1010.2 |
| 20260508160714 | 18 | 164 | 1.6 | 3.2 | 0.00 | 0.00 | 0.00 | 54 | 1010.1 |
| 20260508160213 | 18 | 147 | 9.7 | 14.5 | 0.00 | 0.00 | 0.00 | 57 | 1010.3 |
| 20260508155709 | 18 | 151 | 6.4 | 11.3 | 0.00 | 0.00 | 0.00 | 53 | 1010.1 |
| 20260508155206 | 18 | 139 | 6.4 | 6.4 | 0.00 | 0.00 | 0.00 | 55 | 1010.4 |
| 20260508154703 | 18 | 159 | 4.8 | 6.4 | 0.00 | 0.00 | 0.00 | 55 | 1010.4 |
| 20260508154200 | 18 | 162 | 1.6 | 3.2 | 0.00 | 0.00 | 0.00 | 57 | 1010.7 |
| 20260508153656 | 18 | 157 | 1.6 | 3.2 | 0.00 | 0.00 | 0.00 | 58 | 1010.5 |
| 20260508153154 | 18 | 145 | 0.0 | 1.6 | 0.00 | 0.00 | 0.00 | 56 | 1010.8 |
| 20260508152650 | 17 | 152 | 3.2 | 4.8 | 0.00 | 0.00 | 0.00 | 57 | 1010.5 |
| 20260508152146 | 18 | 137 | 6.4 | 6.4 | 0.00 | 0.00 | 0.00 | 60 | 1010.5 |
| 20260508151642 | 18 | 191 | 3.2 | 3.2 | 0.00 | 0.00 | 0.00 | 56 | 1010.8 |
| 20260508151139 | 17 | 161 | 3.2 | 4.8 | 0.00 | 0.00 | 0.00 | 56 | 1010.7 |
| 20260508150636 | 17 | 151 | 1.6 | 3.2 | 0.00 | 0.00 | 0.00 | 59 | 1010.9 |
| 20260508150133 | 17 | 146 | 3.2 | 3.2 | 0.00 | 0.00 | 0.00 | 61 | 1011.0 |
| 20260508145629 | 17 | 142 | 4.8 | 6.4 | 0.00 | 0.00 | 0.00 | 55 | 1010.9 |
| 20260508145125 | 17 | 154 | 1.6 | 1.6 | 0.00 | 0.00 | 0.00 | 54 | 1011.0 |
| 20260508144623 | 17 | 143 | 6.4 | 9.7 | 0.00 | 0.00 | 0.00 | 57 | 1010.7 |
| 20260508144120 | 17 | 144 | 1.6 | 3.2 | 0.00 | 0.00 | 0.00 | 60 | 1011.0 |
| 20260508143618 | 16 | 153 | 3.2 | 3.2 | 0.00 | 0.00 | 0.00 | 56 | 1011.0 |
| 20260508143114 | 16 | 121 | 4.8 | 9.7 | 0.00 | 0.00 | 0.00 | 56 | 1011.0 |
| 20260508142611 | 16 | 154 | 6.4 | 9.7 | 0.00 | 0.00 | 0.00 | 55 | 1011.2 |
| 20260508142108 | 16 | 166 | 1.6 | 1.6 | 0.00 | 0.00 | 0.00 | 59 | 1011.2 |
| 20260508141604 | 16 | 145 | 1.6 | 3.2 | 0.00 | 0.00 | 0.00 | 59 | 1011.1 |
| 20260508141102 | 16 | 127 | 6.4 | 9.7 | 0.00 | 0.00 | 0.00 | 57 | 1011.3 |
| 20260508140559 | 16 | 163 | 1.6 | 3.2 | 0.00 | 0.00 | 0.00 | 56 | 1011.4 |
| 20260508140055 | 15 | 134 | 6.4 | 6.4 | 0.00 | 0.00 | 0.00 | 57 | 1011.3 |
| 20260508135551 | 16 | 164 | 8.0 | 12.9 | 0.00 | 0.00 | 0.00 | 56 | 1011.3 |
| 20260508135047 | 15 | 154 | 1.6 | 3.2 | 0.00 | 0.00 | 0.00 | 61 | 1011.4 |
| 20260508134544 | 15 | 124 | 0.0 | 1.6 | 0.00 | 0.00 | 0.00 | 63 | 1011.2 |
| 20260508134041 | 15 | 160 | 0.0 | 0.0 | 0.00 | 0.00 | 0.00 | 60 | 1011.2 |
| 20260508133538 | 15 | 160 | 1.6 | 4.8 | 0.00 | 0.00 | 0.00 | 59 | 1011.2 |
| 20260508133035 | 15 | 168 | 1.6 | 1.6 | 0.00 | 0.00 | 0.00 | 64 | 1011.5 |
| 20260508132533 | 14 | 132 | 3.2 | 4.8 | 0.00 | 0.00 | 0.00 | 62 | 1011.5 |
| 20260508132029 | 13 | 157 | 0.0 | 1.6 | 0.00 | 0.00 | 0.00 | 65 | 1011.4 |
| 20260508131524 | 14 | 157 | 0.0 | 0.0 | 0.00 | 0.00 | 0.00 | 67 | 1011.4 |
| 20260508131021 | 13 | 162 | 0.0 | 0.0 | 0.00 | 0.00 | 0.00 | 66 | 1011.5 |
| 20260508130519 | 15 | 156 | 1.6 | 1.6 | 0.00 | 0.00 | 0.00 | 68 | 1011.4 |
| 20260508130015 | 14 | 163 | 0.0 | 0.0 | 0.00 | 0.00 | 0.00 | 72 | 1011.5 |
| 20260508125511 | 13 | 133 | 0.0 | 0.0 | 0.00 | 0.00 | 0.00 | 73 | 1011.2 |
| 20260508125009 | 13 | 164 | 0.0 | 0.0 | 0.00 | 0.00 | 0.00 | 73 | 1011.3 |
| 20260508124507 | 12 | 162 | 0.0 | 0.0 | 0.00 | 0.00 | 0.00 | 76 | 1011.3 |
| 20260508124004 | 12 | 161 | 0.0 | 1.6 | 0.00 | 0.00 | 0.00 | 76 | 1011.3 |
| 20260508123502 | 11 | 158 | 0.0 | 0.0 | 0.00 | 0.00 | 0.00 | 76 | 1011.5 |
| 20260508122958 | 11 | 163 | 0.0 | 0.0 | 0.00 | 0.00 | 0.00 | 79 | 1011.2 |
| 20260508122455 | 11 | 161 | 0.0 | 1.6 | 0.00 | 0.00 | 0.00 | 78 | 1011.6 |
| 20260508121952 | 10 | 163 | 0.0 | 0.0 | 0.00 | 0.00 | 0.00 | 80 | 1011.5 |
| 20260508121450 | 10 | 121 | 0.0 | 1.6 | 0.00 | 0.00 | 0.00 | 80 | 1011.3 |
| 20260508120948 | 10 | 162 | 0.0 | 0.0 | 0.00 | 0.00 | 0.00 | 83 | 1011.4 |
| 20260508120445 | 8 | 166 | 0.0 | 0.0 | 0.00 | 0.00 | 0.00 | 87 | 1011.2 |
| 20260508115943 | 8 | 161 | 1.6 | 1.6 | 0.00 | 0.00 | 0.00 | 86 | 1011.2 |
| 20260508115441 | 8 | 168 | 0.0 | 0.0 | 0.00 | 0.00 | 0.00 | 90 | 1011.2 |
| 20260508114937 | 7 | 165 | 0.0 | 0.0 | 0.00 | 0.00 | 0.00 | 95 | 1011.1 |
| 20260508114434 | 6 | 163 | 0.0 | 0.0 | 0.00 | 0.00 | 0.00 | 97 | 1011.3 |
| 20260508113931 | 6 | 163 | 0.0 | 0.0 | 0.00 | 0.00 | 0.00 | 98 | 1011.1 |
| 20260508113429 | 6 | 162 | 0.0 | 0.0 | 0.00 | 0.00 | 0.00 | 99 | 1011.3 |
| 20260508112925 | 6 | 163 | 0.0 | 0.0 | 0.00 | 0.00 | 0.00 | 99 | 1011.1 |
| 20260508112422 | 6 | 162 | 0.0 | 0.0 | 0.00 | 0.00 | 0.00 | 99 | 1011.0 |
| 20260508111919 | 6 | 163 | 0.0 | 0.0 | 0.00 | 0.00 | 0.00 | 99 | 1010.9 |
| 20260508111416 | 5 | 163 | 0.0 | 0.0 | 0.00 | 0.00 | 0.00 | 99 | 1011.0 |
| 20260508110913 | 5 | 163 | 0.0 | 0.0 | 0.00 | 0.00 | 0.00 | 99 | 1011.0 |
| 20260508110411 | 5 | 164 | 0.0 | 0.0 | 0.00 | 0.00 | 0.00 | 99 | 1010.7 |
| 20260508105910 | 5 | 166 | 0.0 | 0.0 | 0.00 | 0.00 | 0.00 | 99 | 1010.8 |
| 20260508105407 | 5 | 162 | 0.0 | 0.0 | 0.00 | 0.00 | 0.00 | 99 | 1010.7 |
| 20260508104904 | 5 | 163 | 0.0 | 0.0 | 0.00 | 0.00 | 0.00 | 99 | 1010.5 |
| 20260508104401 | 5 | 164 | 0.0 | 0.0 | 0.00 | 0.00 | 0.00 | 99 | 1010.8 |
| 20260508103858 | 5 | 162 | 0.0 | 0.0 | 0.00 | 0.00 | 0.00 | 99 | 1010.9 |
| 20260508103355 | 4 | 162 | 0.0 | 0.0 | 0.00 | 0.00 | 0.00 | 99 | 1010.8 |
| 20260508102852 | 4 | 161 | 0.0 | 0.0 | 0.00 | 0.00 | 0.00 | 99 | 1010.8 |
| 20260508102351 | 4 | 161 | 0.0 | 0.0 | 0.00 | 0.00 | 0.00 | 99 | 1011.0 |
| 20260508101848 | 4 | 161 | 0.0 | 0.0 | 0.00 | 0.00 | 0.00 | 99 | 1010.9 |
| 20260508101345 | 4 | 161 | 0.0 | 0.0 | 0.00 | 0.00 | 0.00 | 99 | 1011.0 |
| 20260508100842 | 4 | 160 | 0.0 | 0.0 | 0.00 | 0.00 | 0.00 | 99 | 1010.8 |
| 20260508100341 | 4 | 161 | 0.0 | 0.0 | 0.00 | 0.00 | 0.00 | 99 | 1010.9 |
| 20260508095836 | 4 | 161 | 0.0 | 0.0 | 0.00 | 0.00 | 0.00 | 99 | 1010.8 |
| 20260508095334 | 4 | 158 | 0.0 | 0.0 | 0.00 | 0.00 | 0.00 | 99 | 1010.8 |
| 20260508094831 | 4 | 161 | 0.0 | 0.0 | 0.00 | 0.00 | 0.00 | 99 | 1010.9 |
| 20260508094328 | 3 | 161 | 0.0 | 0.0 | 0.00 | 0.00 | 0.00 | 99 | 1010.9 |
| 20260508093825 | 4 | 161 | 0.0 | 0.0 | 0.00 | 0.00 | 0.00 | 99 | 1011.0 |
| 20260508093322 | 4 | 162 | 0.0 | 0.0 | 0.00 | 0.00 | 0.00 | 99 | 1011.0 |
| 20260508092819 | 4 | 162 | 0.0 | 0.0 | 0.00 | 0.00 | 0.00 | 99 | 1011.0 |
| 20260508092317 | 3 | 160 | 0.0 | 0.0 | 0.00 | 0.00 | 0.00 | 99 | 1010.9 |
| 20260508091815 | 4 | 162 | 0.0 | 0.0 | 0.00 | 0.00 | 0.00 | 99 | 1010.7 |
| 20260508091311 | 4 | 167 | 0.0 | 0.0 | 0.00 | 0.00 | 0.00 | 99 | 1011.0 |
| 20260508090809 | 3 | 166 | 0.0 | 0.0 | 0.00 | 0.00 | 0.00 | 99 | 1010.7 |
| 20260508090308 | 3 | 160 | 0.0 | 0.0 | 0.00 | 0.00 | 0.00 | 99 | 1010.9 |
| 20260508085803 | 3 | 162 | 0.0 | 0.0 | 0.00 | 0.00 | 0.00 | 99 | 1010.9 |
| 20260508085300 | 3 | 162 | 0.0 | 0.0 | 0.00 | 0.00 | 0.00 | 99 | 1010.7 |
| 20260508084756 | 3 | 162 | 0.0 | 0.0 | 0.00 | 0.00 | 0.00 | 99 | 1010.8 |
| 20260508084253 | 2 | 169 | 0.0 | 0.0 | 0.00 | 0.00 | 0.00 | 99 | 1010.8 |
| 20260508083751 | 2 | 160 | 0.0 | 0.0 | 0.00 | 0.00 | 0.00 | 99 | 1010.8 |
| 20260508083248 | 2 | 156 | 0.0 | 0.0 | 0.00 | 0.00 | 0.00 | 99 | 1011.0 |
| 20260508082748 | 2 | 160 | 0.0 | 0.0 | 0.00 | 0.00 | 0.00 | 99 | 1010.5 |
| 20260508082246 | 2 | 158 | 0.0 | 0.0 | 0.00 | 0.00 | 0.00 | 99 | 1010.9 |
| 20260508081743 | 2 | 158 | 0.0 | 0.0 | 0.00 | 0.00 | 0.00 | 99 | 1010.8 |
| 20260508081240 | 2 | 160 | 0.0 | 0.0 | 0.00 | 0.00 | 0.00 | 99 | 1010.8 |
| 20260508080737 | 2 | 159 | 0.0 | 0.0 | 0.00 | 0.00 | 0.00 | 99 | 1010.7 |
| 20260508080235 | 2 | 161 | 0.0 | 0.0 | 0.00 | 0.00 | 0.00 | 99 | 1010.8 |
| 20260508075731 | 2 | 161 | 0.0 | 0.0 | 0.00 | 0.00 | 0.00 | 99 | 1010.7 |
| 20260508075228 | 2 | 160 | 0.0 | 0.0 | 0.00 | 0.00 | 0.00 | 99 | 1010.5 |
| 20260508074726 | 2 | 157 | 0.0 | 0.0 | 0.00 | 0.00 | 0.00 | 99 | 1010.8 |
| 20260508074223 | 2 | 157 | 0.0 | 0.0 | 0.00 | 0.00 | 0.00 | 99 | 1010.4 |
| 20260508073719 | 2 | 160 | 0.0 | 0.0 | 0.00 | 0.00 | 0.00 | 99 | 1010.5 |
| 20260508073218 | 2 | 161 | 0.0 | 0.0 | 0.00 | 0.00 | 0.00 | 99 | 1010.8 |
| 20260508072713 | 2 | 161 | 0.0 | 0.0 | 0.00 | 0.00 | 0.00 | 99 | 1010.8 |
| 20260508072210 | 2 | 157 | 0.0 | 0.0 | 0.00 | 0.00 | 0.00 | 99 | 1010.8 |
| 20260508071708 | 2 | 159 | 0.0 | 0.0 | 0.00 | 0.00 | 0.00 | 99 | 1010.7 |
| 20260508071206 | 2 | 161 | 0.0 | 0.0 | 0.00 | 0.00 | 0.00 | 99 | 1010.7 |
| 20260508070703 | 2 | 156 | 0.0 | 0.0 | 0.00 | 0.00 | 0.00 | 99 | 1010.8 |
| 20260508070202 | 2 | 160 | 0.0 | 0.0 | 0.00 | 0.00 | 0.00 | 99 | 1010.7 |
| 20260508065659 | 2 | 161 | 0.0 | 0.0 | 0.00 | 0.00 | 0.00 | 99 | 1010.7 |
| 20260508065156 | 3 | 160 | 0.0 | 0.0 | 0.00 | 0.00 | 0.00 | 99 | 1010.8 |
| 20260508064654 | 3 | 160 | 0.0 | 0.0 | 0.00 | 0.00 | 0.00 | 99 | 1011.0 |
| 20260508064152 | 3 | 160 | 0.0 | 0.0 | 0.00 | 0.00 | 0.00 | 99 | 1011.1 |
| 20260508063649 | 3 | 160 | 0.0 | 0.0 | 0.00 | 0.00 | 0.00 | 99 | 1011.1 |
| 20260508063147 | 2 | 160 | 0.0 | 0.0 | 0.00 | 0.00 | 0.00 | 99 | 1011.2 |
| 20260508062644 | 3 | 161 | 0.0 | 0.0 | 0.00 | 0.00 | 0.00 | 99 | 1011.1 |
| 20260508062141 | 3 | 158 | 0.0 | 0.0 | 0.00 | 0.00 | 0.00 | 99 | 1011.4 |
| 20260508061638 | 3 | 156 | 0.0 | 0.0 | 0.00 | 0.00 | 0.00 | 99 | 1011.4 |
| 20260508061135 | 3 | 160 | 0.0 | 0.0 | 0.00 | 0.00 | 0.00 | 99 | 1011.1 |
| 20260508060632 | 3 | 160 | 0.0 | 0.0 | 0.00 | 0.00 | 0.00 | 99 | 1011.4 |
| 20260508060129 | 3 | 160 | 0.0 | 0.0 | 0.00 | 0.00 | 0.00 | 98 | 1011.2 |
| 20260508055625 | 3 | 163 | 0.0 | 0.0 | 0.00 | 0.00 | 0.00 | 98 | 1011.2 |
| 20260508055122 | 3 | 161 | 0.0 | 0.0 | 0.00 | 0.00 | 0.00 | 98 | 1011.1 |
| 20260508054618 | 3 | 161 | 0.0 | 0.0 | 0.00 | 0.00 | 0.00 | 97 | 1011.4 |
| 20260508054116 | 4 | 161 | 0.0 | 0.0 | 0.00 | 0.00 | 0.00 | 97 | 1011.4 |
| 20260508053612 | 4 | 161 | 0.0 | 0.0 | 0.00 | 0.00 | 0.00 | 96 | 1011.4 |
| 20260508053111 | 3 | 161 | 0.0 | 0.0 | 0.00 | 0.00 | 0.00 | 96 | 1011.3 |
| 20260508052608 | 4 | 160 | 0.0 | 0.0 | 0.00 | 0.00 | 0.00 | 96 | 1011.4 |
| 20260508052105 | 5 | 160 | 0.0 | 0.0 | 0.00 | 0.00 | 0.00 | 94 | 1011.2 |
| 20260508051601 | 4 | 161 | 0.0 | 0.0 | 0.00 | 0.00 | 0.00 | 94 | 1011.3 |
| 20260508051056 | 4 | 160 | 0.0 | 0.0 | 0.00 | 0.00 | 0.00 | 95 | 1011.1 |
| 20260508050552 | 4 | 160 | 0.0 | 0.0 | 0.00 | 0.00 | 0.00 | 95 | 1011.3 |
| 20260508050050 | 5 | 161 | 0.0 | 0.0 | 0.00 | 0.00 | 0.00 | 95 | 1011.2 |
| 20260508045546 | 5 | 160 | 0.0 | 0.0 | 0.00 | 0.00 | 0.00 | 96 | 1011.2 |
| 20260508045044 | 5 | 155 | 0.0 | 0.0 | 0.00 | 0.00 | 0.00 | 97 | 1011.5 |
| 20260508044541 | 4 | 160 | 0.0 | 0.0 | 0.00 | 0.00 | 0.00 | 96 | 1011.3 |
| 20260508044037 | 4 | 162 | 0.0 | 0.0 | 0.00 | 0.00 | 0.00 | 97 | 1011.3 |
| 20260508043534 | 5 | 160 | 0.0 | 0.0 | 0.00 | 0.00 | 0.00 | 97 | 1011.1 |
| 20260508043031 | 5 | 160 | 0.0 | 0.0 | 0.00 | 0.00 | 0.00 | 97 | 1011.2 |
| 20260508042527 | 5 | 160 | 0.0 | 0.0 | 0.00 | 0.00 | 0.00 | 97 | 1011.1 |
| 20260508042025 | 5 | 161 | 0.0 | 0.0 | 0.00 | 0.00 | 0.00 | 97 | 1011.2 |
| 20260508041521 | 4 | 159 | 0.0 | 0.0 | 0.00 | 0.00 | 0.00 | 97 | 1011.2 |
| 20260508041018 | 5 | 160 | 0.0 | 0.0 | 0.00 | 0.00 | 0.00 | 98 | 1011.0 |
| 20260508040515 | 5 | 161 | 0.0 | 0.0 | 0.00 | 0.00 | 0.00 | 97 | 1010.9 |
| 20260508040013 | 5 | 162 | 0.0 | 0.0 | 0.00 | 0.00 | 0.00 | 96 | 1011.0 |
| 20260508035509 | 4 | 160 | 0.0 | 0.0 | 0.00 | 0.00 | 0.00 | 96 | 1010.9 |
| 20260508035006 | 4 | 161 | 0.0 | 0.0 | 0.00 | 0.00 | 0.00 | 95 | 1011.0 |
| 20260508034504 | 5 | 160 | 0.0 | 0.0 | 0.00 | 0.00 | 0.00 | 95 | 1011.1 |
| 20260508034000 | 5 | 161 | 0.0 | 0.0 | 0.00 | 0.00 | 0.00 | 95 | 1010.9 |
| 20260508033458 | 5 | 161 | 0.0 | 0.0 | 0.00 | 0.00 | 0.00 | 95 | 1011.0 |
| 20260508032955 | 5 | 160 | 0.0 | 0.0 | 0.00 | 0.00 | 0.00 | 94 | 1011.1 |
| 20260508032452 | 5 | 160 | 0.0 | 0.0 | 0.00 | 0.00 | 0.00 | 94 | 1011.3 |
| 20260508031949 | 5 | 161 | 0.0 | 0.0 | 0.00 | 0.00 | 0.00 | 94 | 1011.2 |
| 20260508031447 | 5 | 156 | 0.0 | 0.0 | 0.00 | 0.00 | 0.00 | 94 | 1011.3 |
| 20260508030942 | 5 | 161 | 0.0 | 0.0 | 0.00 | 0.00 | 0.00 | 95 | 1010.9 |
| 20260508030439 | 5 | 161 | 0.0 | 0.0 | 0.00 | 0.00 | 0.00 | 96 | 1010.9 |
| 20260508025937 | 5 | 162 | 0.0 | 0.0 | 0.00 | 0.00 | 0.00 | 95 | 1010.9 |
| 20260508025433 | 5 | 160 | 0.0 | 0.0 | 0.00 | 0.00 | 0.00 | 94 | 1010.9 |
| 20260508024930 | 5 | 161 | 0.0 | 0.0 | 0.00 | 0.00 | 0.00 | 94 | 1011.0 |
| 20260508024426 | 5 | 160 | 0.0 | 0.0 | 0.00 | 0.00 | 0.00 | 94 | 1011.1 |
| 20260508023923 | 5 | 159 | 0.0 | 0.0 | 0.00 | 0.00 | 0.00 | 94 | 1011.2 |
| 20260508023420 | 6 | 161 | 0.0 | 0.0 | 0.00 | 0.00 | 0.00 | 92 | 1011.0 |
| 20260508022917 | 6 | 158 | 0.0 | 0.0 | 0.00 | 0.00 | 0.00 | 91 | 1011.1 |
| 20260508022413 | 6 | 161 | 0.0 | 0.0 | 0.00 | 0.00 | 0.00 | 89 | 1010.9 |
| 20260508021910 | 6 | 165 | 0.0 | 0.0 | 0.00 | 0.00 | 0.00 | 88 | 1011.0 |
| 20260508021406 | 6 | 161 | 0.0 | 0.0 | 0.00 | 0.00 | 0.00 | 89 | 1011.0 |
| 20260508020902 | 6 | 159 | 0.0 | 0.0 | 0.00 | 0.00 | 0.00 | 88 | 1010.8 |
| 20260508020400 | 6 | 161 | 0.0 | 0.0 | 0.00 | 0.00 | 0.00 | 85 | 1011.0 |
| 20260508015857 | 6 | 162 | 0.0 | 0.0 | 0.00 | 0.00 | 0.00 | 87 | 1010.5 |
| 20260508015355 | 6 | 160 | 0.0 | 0.0 | 0.00 | 0.00 | 0.00 | 86 | 1010.8 |
| 20260508014851 | 6 | 161 | 0.0 | 0.0 | 0.00 | 0.00 | 0.00 | 87 | 1010.9 |
| 20260508014348 | 7 | 161 | 0.0 | 0.0 | 0.00 | 0.00 | 0.00 | 86 | 1010.5 |
| 20260508013843 | 7 | 161 | 0.0 | 0.0 | 0.00 | 0.00 | 0.00 | 85 | 1010.9 |
| 20260508013340 | 7 | 160 | 0.0 | 0.0 | 0.00 | 0.00 | 0.00 | 83 | 1011.0 |
| 20260508012837 | 7 | 161 | 0.0 | 0.0 | 0.00 | 0.00 | 0.00 | 80 | 1011.0 |
| 20260508012334 | 7 | 160 | 0.0 | 0.0 | 0.00 | 0.00 | 0.00 | 79 | 1010.9 |
| 20260508011832 | 7 | 162 | 0.0 | 0.0 | 0.00 | 0.00 | 0.00 | 79 | 1010.9 |
| 20260508011330 | 8 | 160 | 0.0 | 0.0 | 0.00 | 0.00 | 0.00 | 76 | 1010.7 |
| 20260508010827 | 8 | 160 | 0.0 | 0.0 | 0.00 | 0.00 | 0.00 | 74 | 1010.5 |
| 20260508010324 | 8 | 162 | 0.0 | 0.0 | 0.00 | 0.00 | 0.00 | 73 | 1010.7 |
| 20260508005821 | 8 | 162 | 0.0 | 0.0 | 0.00 | 0.00 | 0.00 | 76 | 1010.8 |
| 20260508005318 | 9 | 161 | 0.0 | 0.0 | 0.00 | 0.00 | 0.00 | 72 | 1010.7 |
| 20260508004815 | 10 | 161 | 0.0 | 0.0 | 0.00 | 0.00 | 0.00 | 71 | 1010.5 |
| 20260508004310 | 10 | 161 | 0.0 | 0.0 | 0.00 | 0.00 | 0.00 | 68 | 1010.5 |
| 20260508003807 | 10 | 161 | 0.0 | 0.0 | 0.00 | 0.00 | 0.00 | 62 | 1010.4 |
| 20260508003304 | 11 | 161 | 0.0 | 0.0 | 0.00 | 0.00 | 0.00 | 61 | 1010.5 |
| 20260508002801 | 11 | 160 | 0.0 | 0.0 | 0.00 | 0.00 | 0.00 | 60 | 1010.7 |
| 20260508002258 | 12 | 159 | 0.0 | 0.0 | 0.00 | 0.00 | 0.00 | 57 | 1010.4 |
| 20260508001754 | 13 | 158 | 1.6 | 1.6 | 0.00 | 0.00 | 0.00 | 57 | 1010.3 |
| 20260508001249 | 13 | 160 | 0.0 | 0.0 | 0.00 | 0.00 | 0.00 | 54 | 1010.3 |
| 20260508000746 | 14 | 157 | 0.0 | 0.0 | 0.00 | 0.00 | 0.00 | 48 | 1010.4 |
| 20260508000243 | 15 | 159 | 0.0 | 0.0 | 0.00 | 0.00 | 0.00 | 53 | 1010.2 |
| 20260507235739 | 15 | 159 | 0.0 | 0.0 | 0.00 | 0.00 | 0.00 | 53 | 1010.7 |
| 20260507235237 | 14 | 157 | 0.0 | 0.0 | 0.00 | 0.00 | 0.00 | 50 | 1010.3 |
| 20260507234734 | 14 | 149 | 1.6 | 3.2 | 0.00 | 0.00 | 0.00 | 50 | 1010.4 |
| 20260507234230 | 14 | 147 | 3.2 | 3.2 | 0.00 | 0.00 | 0.00 | 50 | 1010.3 |
| 20260507233727 | 14 | 113 | 8.0 | 9.7 | 0.00 | 0.00 | 0.00 | 48 | 1010.7 |
| 20260507233225 | 14 | 125 | 9.7 | 11.3 | 0.00 | 0.00 | 0.00 | 48 | 1010.2 |
| 20260507232722 | 15 | 147 | 4.8 | 4.8 | 0.00 | 0.00 | 0.00 | 48 | 1010.1 |
| 20260507232219 | 15 | 135 | 4.8 | 6.4 | 0.00 | 0.00 | 0.00 | 46 | 1010.1 |
| 20260507231716 | 15 | 157 | 3.2 | 3.2 | 0.00 | 0.00 | 0.00 | 46 | 1010.3 |
| 20260507231213 | 15 | 148 | 3.2 | 4.8 | 0.00 | 0.00 | 0.00 | 49 | 1010.2 |
| 20260507230709 | 15 | 153 | 4.8 | 6.4 | 0.00 | 0.00 | 0.00 | 49 | 1010.3 |
| 20260507230207 | 15 | 133 | 6.4 | 6.4 | 0.00 | 0.00 | 0.00 | 46 | 1010.3 |
| 20260507225706 | 15 | 144 | 6.4 | 9.7 | 0.00 | 0.00 | 0.00 | 45 | 1010.3 |
| 20260507225203 | 16 | 121 | 4.8 | 9.7 | 0.00 | 0.00 | 0.00 | 46 | 1010.1 |
| 20260507224658 | 15 | 160 | 0.0 | 0.0 | 0.00 | 0.00 | 0.00 | 41 | 1010.2 |
| 20260507224155 | 15 | 134 | 3.2 | 3.2 | 0.00 | 0.00 | 0.00 | 46 | 1010.1 |
| 20260507223651 | 16 | 142 | 6.4 | 6.4 | 0.00 | 0.00 | 0.00 | 43 | 1010.3 |
| 20260507223148 | 16 | 162 | 0.0 | 1.6 | 0.00 | 0.00 | 0.00 | 43 | 1010.3 |
| 20260507222645 | 15 | 142 | 6.4 | 6.4 | 0.00 | 0.00 | 0.00 | 40 | 1010.2 |
| 20260507222141 | 15 | 132 | 6.4 | 9.7 | 0.00 | 0.00 | 0.00 | 43 | 1010.3 |
| 20260507221638 | 15 | 102 | 14.5 | 14.5 | 0.00 | 0.00 | 0.00 | 44 | 1010.4 |
| 20260507221134 | 15 | 120 | 12.9 | 14.5 | 0.00 | 0.00 | 0.00 | 44 | 1010.4 |